Location: Mason Neck State Park
(38.6428°N, 77.1981°W)
Time: 15:05:59
(UTC-05:00)

Daily predictions for brighter satellites

Satellite Brightness Start Highest point End
(mag) Time Altitude Azimuth Time Altitude Azimuth Time Altitude Azimuth
Cosmos 2333 Rocket 2.8 17:37:41 10° S 17:42:52 39° ESE 17:48:04 10° NE
Atlas Centaur 2 4.0 17:38:55 10° WSW 17:43:20 24° SSW 17:47:02 10° SE
COSMOS 2441 4.5 17:38:54 10° SSE 17:43:39 55° ENE 17:48:24 10° N
Cosmos 2058 4.4 17:41:04 10° SE 17:43:42 17° E 17:46:20 10° NE
Cosmos 389 Rocket 2.6 17:40:11 10° N 17:43:47 85° W 17:47:19 10° S
Cosmos 1763 Rocket 3.5 17:40:39 10° SSW 17:45:54 88° ESE 17:51:07 10° NNE
CORIOLIS 4.1 17:42:13 10° SSE 17:47:33 84° ENE 17:52:56 10° NNW
Tsikada Rocket 4.3 17:46:14 10° S 17:52:34 76° W 17:59:01 10° N
BREEZE-M DEB (TANK) 3.8 17:51:21 10° WNW 17:54:13 55° SSW 18:02:02 10° SE
Cosmos 2219 Rocket 2.2 17:50:50 10° S 17:56:25 68° ESE 18:02:01 10° NNE
Cosmos 1743 Rocket 3.6 17:52:50 10° S 17:57:18 82° E 18:01:48 10° N
Cosmos 2278 Rocket 2.7 17:57:56 10° N 18:03:09 36° ENE 18:08:20 10° SE
Cosmos 1328 Rocket 3.6 17:59:47 10° N 18:04:16 89° WSW 18:08:42 10° S
Cosmos 540 Rocket 3.8 18:01:44 10° S 18:06:38 46° ESE 18:11:34 10° NNE
Cosmos 1340 Rocket 4.0 18:03:46 10° SE 18:06:53 22° E 18:09:40 11° NE
USA 215 3.5 18:01:13 10° ESE 18:07:29 50° NE 18:13:46 10° NW
Cosmos 2151 3.2 18:05:02 10° SSE 18:09:03 46° E 18:13:05 10° NNE
Cosmos 332 Rocket 4.0 18:05:18 10° SSW 18:10:05 76° WNW 18:14:58 10° NNE
Cosmos 1908 4.4 18:06:49 10° NNW 18:10:34 47° W 18:14:18 10° SSW
MONITOR-E 4.3 18:07:52 10° S 18:11:01 84° WSW 18:14:12 10° NNW
Cosmos 1515 Rocket 3.5 18:06:40 10° N 18:11:10 80° E 18:15:36 10° S
Cosmos 1844 3.7 18:08:32 10° NNW 18:14:20 78° ENE 18:20:07 10° SSE
SKYMED 2 3.5 18:10:00 10° NNE 18:14:21 79° ESE 18:18:41 10° S
Abrixas 3.7 18:12:00 10° SSW 18:14:33 27° SE 18:15:50 19° E
SL-14 R/B 3.3 18:11:54 10° S 18:15:42 53° E 18:19:33 10° NNE
Cosmos 1674 4.4 18:14:07 10° SW 18:17:36 34° WNW 18:21:09 10° NNW
MSX 4.4 18:12:11 10° S 18:17:49 62° W 18:23:30 10° NNW
Cosmos 1626 3.8 18:16:11 10° SE 18:17:51 16° ESE 18:17:51 16° ESE
Cosmos 1151 Rocket 2.9 18:16:34 10° N 18:20:49 67° E 18:25:04 10° SSE
Cosmos 1484 Rocket 3.1 18:17:07 10° S 18:20:59 73° WSW 18:24:58 10° NNW
Cosmos 1634 Rocket 3.9 18:14:55 10° N 18:21:09 86° E 18:27:18 10° S
COSMOS 2428 4.0 18:18:18 10° SW 18:23:39 40° WNW 18:29:01 10° N
NOAA 12 4.2 18:18:54 10° SE 18:23:55 49° ENE 18:28:58 10° N
Cosmos 1500 Rocket 3.8 18:20:02 10° SSW 18:24:18 69° W 18:28:39 10° N
DMSP B5D1-3 4.4 18:19:20 10° NNE 18:24:25 70° ESE 18:29:29 10° S
Cosmos 1125 Rocket 3.4 18:19:53 10° NNW 18:25:04 66° ENE 18:30:13 10° SSE
Cosmos 2237 Rocket 2.1 18:21:26 10° SSW 18:27:01 73° ESE 18:32:39 10° NNE
ALOS 3.2 18:26:54 10° ESE 18:30:42 25° ENE 18:34:29 10° NNE
BREEZE-M DEB (TANK) 3.5 18:24:27 10° NW 18:30:58 50° SW 18:33:51 10° SSE
SL-16 R/B 2.9 18:26:48 10° SSE 18:31:45 32° ESE 18:34:21 22° ENE
Cosmos 44 3.4 18:27:15 10° SSW 18:32:33 82° ESE 18:36:41 16° NNE
Spot 2 Rocket 4.3 18:30:21 10° SE 18:34:34 27° ENE 18:38:47 10° N
Cosmos 1300 2.7 18:31:27 10° N 18:35:18 85° W 18:39:08 10° S
Cosmos 1726 2.3 18:33:37 10° N 18:37:24 77° W 18:41:09 10° S
Hubble Space Telescope 3.5 18:37:54 10° SW 18:39:34 12° SSW 18:41:14 10° S
Cosmos 371 Rocket 4.1 18:35:53 10° SW 18:40:34 51° WNW 18:45:15 10° N
Sich 1 3.8 18:37:02 10° SSE 18:40:52 30° E 18:40:52 30° E
NOSS 0 Rocket 4.1 18:35:43 10° SSW 18:41:55 75° WNW 18:48:10 10° NNE
Cosmos 2297 4.2 18:36:54 10° N 18:42:08 36° ENE 18:44:55 23° ESE
BREEZE-M DEB (TANK) 1.8 18:40:17 10° WSW 18:42:42 72° NNW 18:43:03 57° NNE
Lacrosse 5 rocket 2.1 18:40:18 10° NNW 18:43:38 30° NE 18:43:38 30° NE
Cosmos 1633 Rocket 4.2 18:40:11 10° SSE 18:42:54 25° ESE 18:42:54 25° ESE
FREGAT/IRIS 3.7 18:45:51 10° SSE 18:52:42 - N 18:47:34 30° SSE
OTV 4 0.9 18:46:09 10° W 18:49:03 51° SSW 18:49:25 47° SSE
CENTAUR R/B 4.1 18:46:13 10° WSW 18:51:36 30° NW 18:57:34 10° NNE
Resurs 01 Rocket 2.5 18:54:23 31° NE 18:54:23 31° NE 18:57:14 10° N
Meteor 1-11 4.3 18:47:42 10° SSW 18:53:21 79° W 18:59:07 10° N
COSMO-SKYMED 1 4.5 18:58:26 10° N 19:02:12 30° WNW 19:05:59 10° SW
Lacrosse 5 4.3 19:02:49 10° NNW 19:03:05 10° N 19:03:22 10° N
Aureole 2 Rocket 2.9 18:59:39 10° SSW 19:03:13 66° WNW 19:04:38 36° N
CZ-3A R/B 3.0 18:58:51 10° NW 19:03:25 51° NE 19:04:51 39° E
Cosmos 1707 Rocket 3.4 19:02:09 10° N 19:06:27 66° E 19:10:45 10° SSE
FengYun 1-2 T 4.1 19:03:42 10° SSE 19:09:13 67° ENE 19:14:43 10° N
Cosmos 1461 3.1 19:06:51 10° SSW 19:10:31 55° SSE 19:10:31 55° SSE
SJ-6B 3.4 19:08:13 10° S 19:12:12 61° W 19:16:17 10° NNW
Cosmos 2279 Rocket 4.4 19:07:18 10° NNW 19:13:26 63° W 19:19:32 10° S
Cosmos 1666 Rocket 3.3 19:11:01 10° S 19:15:20 81° E 19:15:24 80° ENE
Milstar 3 4.3 19:13:13 10° WSW 19:18:44 28° SSW 19:23:49 14° SE
FENGYUN 3A 3.5 19:18:32 10° SSE 19:23:53 84° ENE 19:29:17 10° NNW
Cosmos 304 Rocket 4.2 19:21:45 10° SSW 19:26:31 61° WNW 19:28:08 39° N
Cosmos 2333 Rocket 3.9 19:22:21 10° WSW 19:27:11 28° WNW 19:32:02 10° N
Cosmos 1703 4.4 19:24:32 10° SSW 19:28:15 43° W 19:29:16 35° NW
Nadezhda 4 Rocket 4.0 19:26:08 10° S 19:32:22 80° W 19:38:42 10° N
Cosmos 2278 Rocket 4.0 19:42:13 10° NW 19:47:05 30° WSW 19:51:55 10° SSW
Cosmos 1092 Rocket 4.0 19:43:20 10° S 19:49:39 81° W 19:51:46 45° N
USA 215 4.1 19:45:33 17° SSE 19:50:28 47° SW 19:56:45 10° WNW
ALOS 4.0 20:03:53 10° SSW 20:07:59 30° W 20:12:06 10° NW
SL-16 R/B 3.6 20:10:41 10° WSW 20:15:46 34° WNW 20:16:19 33° NW
